"Pseudo-MPEC" for P10IcyN

Created 2018 Jul 17 10:18:04 UT using Find_Orb

Click here for an explanation of pseudo-MPECs

 
 Astrometry: 
     P10IcyN  C2018 07 08dVAstrometryvbEc.?Rbt8s1sLYIw[%v(3k%@ICQy+vI*uU]);0nF51
     P10IcyN  C2018 07 08h\Nj_KeH.x9gr=1#predacted;yrs]nO`+XUMCR!hlLnWN/hD[+UF51
     P10IcyN  C2018 07 08_!%^NyBBN\'`7w34*hvop-CM1qwp\L+Asee^=vfy#MjU:$_][5RQF51
     P10IcyN  C2018 07 08BuX^a)51cL]IG]-dYt=7!-F;e_xFt*RdTAnCRWo6MhZ-bwxNEOCPF51

Station data:
(F51) Pan-STARRS 1, Haleakala  (N20.707235 W156.255910)  US/Hawaii.
   Observers N. Primak, A. Schultz, S. Watters, J. Thiel, T. Goggia. Measurer
   PS1 Science Consortium. 1.8-m Ritchey-Chrétien + CCD.

Orbital elements:  P10IcyN
   Perihelion 2018 Oct 19.055619 +/- 78.6 TT =  1:20:05 (JD 2458410.555619)
Epoch 2018 Jul  8.0 TT = JDT 2458307.5   Earth MOID: 0.0012   AutoNEOCP
M 256.31245 +/- 100                 (J2000 ecliptic)
n   1.00613189 +/- 0.677            Peri.  288.85940 +/- 60
a   0.98635391 +/- 0.442            Node   116.43491 +/- 100
e   0.1588249 +/- 0.211             Incl.    4.39147 +/- 60
P   0.98/357.80d           H 27.3   G  0.15   U 12.5  SR
q 0.82969630 +/- 0.388    Q 1.14301151 +/- 11.4
From 4 observations 2018 July 8 (51.2 min); mean residual 0".07
Residuals in arcseconds: 
180708 F51  .08-  .04+    180708 F51  .04+  .08-    
180708 F51  .10+  .03-    180708 F51  .06-  .06+    

Ephemerides (geocentric):
Date (UTC) HH   RA              Dec         delta   r     elong  mag " sig PA
---- -- -- --  -------------   -----------  ------ ------ -----  --- ---- ---
2018 07 17 10  14 44 49.952   -03 51 47.14  .01997 1.0218 105.1 21.5  35d 177
2018 07 17 11  14 43 37.581   -03 55 08.02  .01995 1.0217 104.8 21.5  35d 177
2018 07 17 12  14 42 25.076   -03 58 28.91  .01993 1.0215 104.5 21.5  35d 177
2018 07 17 13  14 41 12.441   -04 01 49.78  .01991 1.0214 104.2 21.5  35d 177
2018 07 17 14  14 39 59.679   -04 05 10.62  .01990 1.0213 103.9 21.5  35d 177
2018 07 17 15  14 38 46.793   -04 08 31.41  .01988 1.0212 103.6 21.5  35d 177
2018 07 17 16  14 37 33.787   -04 11 52.13  .01986 1.0211 103.3 21.5  35d 177
2018 07 17 17  14 36 20.664   -04 15 12.76  .01985 1.0210 103.0 21.5  35d 177
2018 07 17 18  14 35 07.429   -04 18 33.28  .01984 1.0209 102.7 21.5  35d 177
2018 07 17 19  14 33 54.084   -04 21 53.67  .01982 1.0208 102.4 21.5  35d 177
2018 07 17 20  14 32 40.634   -04 25 13.92  .01981 1.0207 102.1 21.5  35d 177
2018 07 17 21  14 31 27.082   -04 28 34.01  .01980 1.0206 101.8 21.6  35d 177
2018 07 17 22  14 30 13.432   -04 31 53.91  .01978 1.0205 101.5 21.6  36d 177
2018 07 17 23  14 28 59.687   -04 35 13.61  .01977 1.0204 101.2 21.6  36d 177
2018 07 18 00  14 27 45.853   -04 38 33.09  .01976 1.0202 100.9 21.6  36d 177
2018 07 18 01  14 26 31.932   -04 41 52.33  .01975 1.0201 100.6 21.6  36d 177
2018 07 18 02  14 25 17.928   -04 45 11.31  .01974 1.0200 100.3 21.6  36d 177
2018 07 18 03  14 24 03.846   -04 48 30.00  .01973 1.0199 100.0 21.6  36d 177
2018 07 18 04  14 22 49.688   -04 51 48.41  .01972 1.0198  99.7 21.6  36d 177
2018 07 18 05  14 21 35.460   -04 55 06.49  .01971 1.0197  99.4 21.6  36d 177
2018 07 18 06  14 20 21.165   -04 58 24.24  .01971 1.0196  99.0 21.6  36d 177
2018 07 18 07  14 19 06.808   -05 01 41.64  .01970 1.0195  98.7 21.6  36d 177
2018 07 18 08  14 17 52.391   -05 04 58.66  .01969 1.0194  98.4 21.7  36d 177
2018 07 18 09  14 16 37.919   -05 08 15.29  .01969 1.0193  98.1 21.7  36d 177
2018 07 18 10  14 15 23.397   -05 11 31.50  .01968 1.0192  97.8 21.7  36d 177
2018 07 18 11  14 14 08.829   -05 14 47.29  .01968 1.0191  97.5 21.7  36d 177
2018 07 18 12  14 12 54.217   -05 18 02.63  .01967 1.0189  97.2 21.7  36d 177
2018 07 18 13  14 11 39.568   -05 21 17.51  .01967 1.0188  96.9 21.7  36d 177
2018 07 18 14  14 10 24.884   -05 24 31.89  .01967 1.0187  96.6 21.7  36d 177
2018 07 18 15  14 09 10.169   -05 27 45.78  .01967 1.0186  96.3 21.7  36d 177
2018 07 18 16  14 07 55.429   -05 30 59.14  .01966 1.0185  95.9 21.7  36d 177
2018 07 18 17  14 06 40.667   -05 34 11.97  .01966 1.0184  95.6 21.8  36d 177
2018 07 18 18  14 05 25.887   -05 37 24.23  .01966 1.0183  95.3 21.8  36d 177
2018 07 18 19  14 04 11.094   -05 40 35.92  .01966 1.0182  95.0 21.8  36d 177
2018 07 18 20  14 02 56.291   -05 43 47.02  .01966 1.0181  94.7 21.8  36d 177
2018 07 18 21  14 01 41.483   -05 46 57.51  .01966 1.0180  94.4 21.8  36d 177
2018 07 18 22  14 00 26.674   -05 50 07.37  .01967 1.0179  94.1 21.8  36d 177
2018 07 18 23  13 59 11.868   -05 53 16.59  .01967 1.0177  93.8 21.8  36d 177
2018 07 19 00  13 57 57.070   -05 56 25.14  .01967 1.0176  93.5 21.8  36d 177
2018 07 19 01  13 56 42.283   -05 59 33.01  .01967 1.0175  93.1 21.8  36d 177
2018 07 19 02  13 55 27.511   -06 02 40.19  .01968 1.0174  92.8 21.9  36d 177
2018 07 19 03  13 54 12.760   -06 05 46.66  .01968 1.0173  92.5 21.9  36d 177
2018 07 19 04  13 52 58.032   -06 08 52.40  .01969 1.0172  92.2 21.9  36d 177
2018 07 19 05  13 51 43.332   -06 11 57.40  .01969 1.0171  91.9 21.9  36d 177
2018 07 19 06  13 50 28.665   -06 15 01.64  .01970 1.0170  91.6 21.9  36d 177
2018 07 19 07  13 49 14.034   -06 18 05.10  .01971 1.0169  91.3 21.9  37d 177
2018 07 19 08  13 47 59.443   -06 21 07.77  .01971 1.0168  91.0 21.9  37d 177
2018 07 19 09  13 46 44.897   -06 24 09.64  .01972 1.0167  90.7 21.9  37d 177